www.pogodaiklimat.ru

Погода и климат >> Архив погоды >> Россия >> Якутия >> Себян-Кюель


ПОГОДА в Себян-Кюеле

  • Прогноз погоды в Себян-Кюеле
  • Монитор погоды в Себян-Кюеле
  • Климат города

АРХИВ ПОГОДЫ в Себян-Кюеле

Время (UTC), дата Ветер
(напр.,м/с)
 
Видим.   Явления Облачность Т
(С)
Тd
(С)
f
(%)
Тe
(С)
Тes
(С)
Комфортность P
(гПа)
Po
(гПа)
Тmin
(С)
Tmax
(С)
R
(мм)
R24
(мм)
S
(см)
06 12.08 З 4 50 км 8/6 1200 м
[Cu med, cong Ac trans]
+20.8 +11.2 54 +23 +24 комфорт 1007.2 920.9
09 12.08 З 1 50 км 8/8 1440 м
[Sc]
+19.4 +13.0 66 +22 +22 комфорт 1008.6 921.8
12 12.08 ЮЗ 2 50 км 8/8 1200 м
[Sc]
+16.8 +13.2 79 +17 +17 1010.4 922.7 +20.8
15 12.08 Ю 1 50 км 4/4 1000 м
[Sc]
+11.2 +9.7 90 +11 +11 1013.3 923.7
18 12.08 штиль 0 50 км 4/4 1000 м
[Sc]
+7.6 +6.2 91 +7 +7 1015.8 924.9
21 12.08 штиль 0 50 км 4/0 2000 м
[Ac trans]
+9.2 +7.1 87 +8 +9 1016.3 925.9
00 13.08 штиль 0 50 км 6/3 1500 м
[Cu med, cong Ci fib]
+18.8 +12.7 68 +20 +24 1013.8 926.7 +7.6
03 13.08 ЮЗ 3 50 км 4/3 1500 м
[Cu med, cong Ci fib]
+22.6 +10.2 45 +24 +29 комфорт 1012.7 926.7
06 13.08 З 4 50 км 8/5 1500 м
[Cu med, cong Ci fib]
+24.2 +6.4 32 +24 +26 комфорт 1012.3 926.7
09 13.08 ЮЗ 1 50 км ясно +24.3 +6.2 31 +24 +26 комфорт 1012.3 926.7
12 13.08 штиль 0 50 км ясно +17.2 +11.8 71 +17 +17 1015.7 928.0 +26.2
15 13.08 штиль 0 50 км ясно +8.7 +7.4 92 +8 +8 1019.6 928.9
18 13.08 штиль 0 50 км ясно +4.5 +3.8 95 +3 +3 1022.2 929.9
21 13.08 штиль 0 50 км ясно +9.3 +7.1 86 +9 +9 1021.4 930.7
00 14.08 штиль 0 50 км ясно +17.0 +8.6 58 +17 +24 1018.0 929.7 +3.9
03 14.08 СВ 1 50 км ясно +23.1 +9.7 43 +25 +35 комфорт 1014.4 928.1
06 14.08 ЮВ 1 50 км ясно +26.6 +8.4 32 +27 +34 жарко 1011.5 926.4
09 14.08 Ю 2 50 км ясно +26.4 +8.5 32 +26 +28 жарко 1011.4 926.3
12 14.08 штиль 0 50 км ясно +14.1 +10.3 78 +14 +14 1015.0 926.1 +26.8
15 14.08 З 1 50 км ясно +9.2 +7.7 90 +9 +9 1017.2 926.7
18 14.08 Ю 2 50 км ясно +5.4 +4.9 97 +3 +3 1018.7 926.9
21 14.08 З 1 50 км ясно +9.8 +7.3 84 +9 +10 1017.4 927.0
00 15.08 штиль 0 50 км 4/0
[Ci fib]
+18.0 +10.5 62 +18 +24 1013.9 926.5 +4.7
03 15.08 ЮЗ 5 50 км 8/0
[Ci fib]
+24.6 +10.6 41 +26 +29 жарко 1010.8 925.5
06 15.08 ЮВ 5 50 км 8/0
[Ci fib]
+26.2 +10.0 36 +27 +29 жарко 1009.5 924.7
09 15.08 штиль 0 50 км 8/0
[Ac trans Ci fib]
+25.8 +10.6 38 +27 +28 жарко 1009.2 924.4
12 15.08 ЮЗ 1 50 км 10/0
[Ac trans Ci fib]
+21.9 +11.3 51 +24 +24 комфорт 1010.7 924.7 +27.5
15 15.08 ЮЗ 1 50 км 8/0
[Ac trans Ci fib]
+12.8 +8.6 76 +13 +13 1013.8 924.9
18 15.08 ЮЗ 1 50 км 4/0
[Ci fib]
+10.5 +7.1 79 +10 +10 1014.7 925.0
21 15.08 ЮЗ 1 50 км 4/0
[Ci fib]
+13.1 +8.5 74 +13 +14 1013.5 924.7
00 16.08 штиль 0 50 км 10/6 1200 м
[Sc Ac trans]
+19.4 +14.2 72 +21 +22 комфорт 1010.8 923.8 +9.1
03 16.08 штиль 0 50 км 10/6 1200 м
[Sc Ac trans]
+22.1 +12.2 53 +24 +26 комфорт 1008.9 922.9
06 16.08 З 2 50 км в посл. час ливневой дождь 10/6 1000 м
[Sc Ac trans]
+18.2 +15.5 84 +19 +20 1009.8 922.6
09 16.08 штиль 0 50 км 8/6 1000 м
[Sc Ac trans]
+17.2 +13.6 79 +17 +18 1010.8 923.2
12 16.08 ЮЗ 3 50 км 4/0 2000 м
[Ac cast]
+13.6 +10.3 80 +12 +12 1013.2 924.3 +22.1 0.0
15 16.08 штиль 0 50 км ясно +6.6 +4.8 88 +6 +6 1016.1 924.9
18 16.08 В 1 50 км 4/0
[Ci fib]
+2.4 +1.4 93 +1 +1 1017.9 925.2
21 16.08 В 1 50 км 8/4 1000 м
[Sc Ci fib]
+5.8 +3.7 86 +5 +5 1017.0 925.4
00 17.08 штиль 0 50 км 10/10 600 м
[Sc]
+9.0 +6.8 86 +8 +8 1015.8 925.5 +2.0
03 17.08 штиль 0 50 км 10/10 450 м
[St]
+10.7 +8.2 85 +10 +10 1014.4 924.8
06 17.08 штиль 0 50 км в посл. час дождь 10/10 450 м
[Sc]
+10.8 +9.4 91 +10 +10 1013.5 924.0
09 17.08 В 1 50 км 10/6
[Sc Ac trans Ci fib]
+11.0 +9.0 87 +11 +11 1012.7 923.3
12 17.08 штиль 0 50 км 6/3 600 м
[Sc Ac trans]
+10.9 +9.0 88 +10 +10 1012.0 922.7 +12.1 0.7
15 17.08 В 1 50 км 8/3 600 м
[Sc Ci fib]
+4.4 +3.9 97 +3 +3 1013.8 922.2
18 17.08 В 1 50 км 10/8 930 м
[Sc Ci fib]
+0.9 +0.9 100 -1 -1 1014.6 921.8
21 17.08 В 1 50 км 10/8 870 м
[Sc Ci fib]
+4.8 +3.8 93 +3 +3 1012.5 921.2
00 18.08 З 2 50 км 10/10 660 м
[Sc]
+9.0 +8.6 97 +7 +7 1012.9 922.7 +0.2
03 18.08 штиль 0 50 км 10/10 800 м
[Sc]
+10.4 +6.5 77 +10 +10 1011.9 922.2
06 18.08 В 2 50 км 10/6 600 м
[Sc Ac trans]
+11.6 +7.0 73 +11 +11 1010.5 921.3
09 18.08 В 2 50 км 10/4 600 м
[Sc Ac lent Ci fib]
+13.2 +6.5 64 +13 +13 1009.3 920.7
12 18.08 штиль 0 50 км 8/4 1000 м
[Sc Ac lent]
+9.6 +8.0 90 +9 +9 1009.5 919.8 +13.2
15 18.08 ЮЗ 2 50 км 10/10 1000 м
[Sc]
+4.2 +3.7 97 +1 +1 1011.6 920.0
18 18.08 В 2 50 км 10/10 1000 м
[Sc]
+1.2 +1.2 100 -3 -3 1011.8 919.2
21 18.08 ЮЗ 2 50 км 10/10 1000 м
[Sc]
+4.2 +3.7 97 +1 +1 1011.6 920.0
00 19.08 ЮЗ 1 50 км 10/10 1440 м
[Sc]
+9.6 +5.6 76 +9 +9 1007.9 918.5 +1.2

 

Местоположение метеостанции Себян-Кюель (Якутия, Россия): широта 65.30 долгота 130.00 высота над уровнем моря 777 м.

В архиве по умолчанию представлена погода в Себян-Кюеле за последнюю неделю. Архивные данные за месяц целиком и за предыдущие месяцы, начиная с января 2011 года, Вы можете получить, выбрав интересующий диапазон дат из раскрывающегося списка и нажав кнопку "Ввод!".

Внимание! Время в таблицах - всемирное. Для получения местного времени необходимо прибавить поправку, которая в Себян-Кюеле равна 9 ч.

Смотрите также архив погоды в соседних городах и на ближайших метеорологических станциях:

Погода в Сеген-Кюели (Якутия, Россия) (145 км)
Погода в Екюччю (Якутия, Россия) (179 км)
Погода в Сангаре (Якутия, Россия) (195 км)
Погода в Батамае (Якутия, Россия) (200 км)
Погода в Сого-Хае (Якутия, Россия) (205 км)
Погода в Верхоянском Перевозе (Якутия, Россия) (240 км)
Погода в Иэме (Якутия, Россия) (269 км)
Погода в Бестяхской Звероферме (Якутия, Россия) (274 км)
Погода в Батагай-Алыте (Якутия, Россия) (276 км)
Погода в Намцах (Якутия, Россия) (288 км)

Пояснения к столбцам:

Ветер - указаны скорость ветра в м/с - средняя за 10 мин, порывы в срок и между сроками (в фигурных скобках) и направление, откуда дует ветер: С - северный, СВ - северо-восточный, В - восточный, ЮВ - юго-восточный, Ю - южный, ЮЗ - юго-западный, З - западный, СЗ - северо-западный.
Видимость - горизонтальная дальность видимости в метрах или километрах. При видимости от 1 до 10 км при отсутствии осадков обычно наблюдается дымка, при ухудшении видимости до 1 км и менее - туман. В сухую погоду видимость может ухудшаться дымом, пылью или мглою.
Явления - указаны атмосферные явления, наблюдавшиеся в срок или в последний час перед сроком; фигурными скобками обозначены явления, наблюдавшиеся между сроками (за 1-3 часа до срока); квадратными скобками обозначены град или гололедные отложения с указанием их диаметра в мм.
Облачность - указаны через наклонную черту общая и нижняя облачность в баллах и высота нижней границы облаков в метрах; квадратными скобками обозначены формы облаков: Ci - перистые, Cs - перисто-слоистые, Cc - перисто-кучевые, Ac - высококучевые, As - высокослоистые, Sc - слоисто-кучевые, Ns - слоисто-дождевые, Cu - кучевые, Cb - кучево-дождевые. Подробнее классификацию облаков см. в Атласе облаков (PDF).
T - Температура воздуха - температура, измеренная на высоте 2 м над землей.
Td - Температура точки росы - температура, при понижении до которой содержащийся в воздухе водяной пар достигнет насыщения.
f - Относительная влажность воздуха - влажноcть воздуха, измеренная на высоте 2 м над землей.
Te - Эффективная температура - температура, которую ощущает одетый по сезону человек в тени. Характеристика душности погоды. При расчете учитывается влияние влажности воздуха и скорости ветра на теплоощущения человека.
Tes - Эффективная температура на солнце - температура, которую ощущает человек, с поправкой на солнечный нагрев. Характеристика знойности погоды. Зависит от высоты солнца над горизонтом, облачности и скорости ветра. Ночью, в пасмурную погоду, а также при ветре 12 м/с и более поправка равна нулю.
P - Атмосферное давление - приведенное к уровню моря атмосферное давление.
Po - Атмосферное давление - измеренное на уровне метеостанции атмосферное давление.
Tmin - Минимальная температура - минимум температуры воздуха на высоте 2 м над землей.
Tmax - Максимальная температура - максимум температуры воздуха на высоте 2 м над землей.
R - Количество осадков - Количество выпавших осадков за период времени, мм. При наведении курсора мыши на число - период времени, за который выпало указанное количество осадков.
R24 - Количество осадков - Количество выпавших осадков за 24 часа, мм.
S - Снежный покров - Высота снежного покрова, см. При наведении курсора мыши на число - состояние снежного покрова и степень покрытия местности в баллах.